Theta_e
331 329 327 324 321 320 320 316 311 309 308 307 307 307 305 305 307 307 308 310 315 317 319 319 318 317 315 315 314 313 312 311 310 309 309 310 310 310 310 310 311 311 311
331 329 325 321 320 319 318 315 307 303 303 303 301 299 298 299 300 302 304 307 311 312 313 314 314 314 314 313 312 311 311 309 308 308 308 308 308 308 308 308 309 309 309
330 327 326 320 317 315 312 308 304 300 299 299 297 296 296 295 295 295 297 303 304 304 306 309 310 311 311 311 311 310 309 308 307 306 306 306 306 306 306 307 307 307 307
328 326 325 319 313 313 309 305 301 299 300 298 295 294 294 294 293 293 294 296 298 298 301 303 305 307 308 309 309 308 307 306 305 304 304 304 304 305 305 305 305 305 306
325 323 320 315 313 314 310 305 301 300 298 295 293 293 293 292 292 292 292 292 292 293 294 296 298 301 303 305 306 306 305 304 304 303 303 303 303 303 303 304 304 304 304
323 319 314 310 309 312 307 303 300 301 297 293 290 290 291 291 292 291 291 291 291 291 291 291 292 295 298 301 302 304 304 303 302 301 301 301 302 302 302 302 303 303 303
315 313 310 305 304 306 308 303 300 297 294 293 291 289 289 290 290 290 291 290 290 289 289 289 290 290 291 295 299 301 302 302 301 300 300 300 300 301 301 301 302 302 302
310 310 306 306 303 306 305 302 300 296 293 294 294 291 286 287 288 289 290 289 289 289 288 288 288 288 290 291 293 296 298 299 300 299 299 299 299 300 300 301 301 301 301
303 303 303 301 303 305 305 304 301 298 292 294 297 299 292 292 287 287 287 288 288 289 288 287 286 287 288 289 290 291 293 295 296 297 297 297 298 299 299 300 300 300 300
301 299 296 297 301 306 306 305 302 300 298 294 294 293 292 296 291 283 286 286 287 287 288 287 286 285 286 287 287 288 289 291 292 294 295 295 296 297 298 299 299 299 299
297 295 294 296 299 302 306 304 301 300 298 298 297 291 289 289 291 288 283 283 286 287 287 287 286 286 286 286 287 287 287 289 290 291 292 293 294 295 296 297 298 298 298
293 292 290 293 296 299 303 302 300 298 299 298 296 292 290 289 288 288 286 285 285 285 286 287 286 286 286 286 283 284 285 287 289 290 290 291 292 293 295 296 296 297 297
295 290 289 289 292 295 300 300 299 297 296 295 293 290 290 289 288 288 287 284 283 284 285 287 287 286 284 286 285 283 283 285 287 289 289 289 291 291 292 293 294 294 294
296 292 288 288 290 292 296 296 295 294 292 292 290 289 288 288 288 287 286 284 281 282 284 284 285 286 286 285 283 282 285 284 286 287 288 288 289 290 291 291 291 292 292
292 288 287 287 287 288 292 291 291 288 290 289 289 288 287 286 286 286 285 286 285 281 281 283 283 285 285 285 284 284 284 284 285 285 286 287 288 289 289 289 290 290 291
290 286 286 285 286 286 289 289 289 288 288 287 287 286 285 285 284 284 283 283 284 284 282 283 283 284 284 282 283 283 283 282 283 284 284 285 287 287 287 287 288 288 289
287 285 284 285 284 284 288 288 287 287 286 285 285 285 284 283 282 281 282 282 282 283 282 282 282 283 282 282 283 284 283 283 283 283 283 284 285 285 285 286 286 286 286
286 284 284 283 284 284 286 287 285 285 285 284 284 283 282 281 281 281 281 281 282 282 282 280 281 281 281 282 282 282 281 282 282 282 283 284 284 283 283 284 284 284 284
285 283 283 282 283 283 285 286 285 285 285 284 283 282 281 281 280 280 280 281 281 279 280 279 279 280 280 281 281 282 282 283 282 283 283 282 281 282 283 282 282 282 281
284 283 282 283 283 283 284 284 284 284 284 283 283 282 281 280 280 280 280 281 280 280 279 278 278 278 280 280 280 279 280 282 281 281 282 280 280 281 282 281 281 279 279
283 282 282 282 282 282 283 283 283 283 282 282 281 281 281 281 282 282 280 281 279 279 279 278 278 278 278 279 278 280 278 279 280 282 279 279 279 279 279 279 278 279 280
283 282 281 281 281 281 284 285 283 282 282 281 280 279 280 280 281 282 283 282 281 280 279 279 279 278 279 279 280 278 278 277 276 282 278 277 278 277 278 278 278 279 280
282 281 281 281 280 281 285 285 284 281 281 281 280 279 279 279 281 280 283 283 283 282 282 280 278 279 279 280 280 278 277 278 277 279 277 274 276 276 277 276 278 278 279
281 281 280 281 281 281 286 286 283 281 281 280 280 280 280 280 279 278 278 279 280 281 282 283 283 282 282 280 279 279 279 278 278 277 277 271 275 274 275 275 277 277 277
281 281 281 280 280 280 286 286 283 281 281 280 280 280 281 280 280 282 279 278 278 279 280 281 282 283 283 283 283 281 278 276 275 276 277 272 273 273 273 273 274 276 276
281 280 280 281 281 281 286 286 283 282 281 280 279 279 281 280 282 282 281 280 278 279 279 279 278 279 281 281 282 281 279 276 275 273 275 270 271 271 268 272 272 272 272
Wind_Speed
7 7 6 6 5 5 7 10 9 8 10 10 10 11 11 11 11 8 8 15 17 19 20 21 22 22 21 22 22 22 21 23 23 23 23 25 25 25 26 25 26 26 26
9 7 7 6 6 6 8 10 9 8 7 9 10 10 10 9 10 10 9 11 19 20 20 20 20 21 21 21 21 20 21 22 23 23 24 24 25 25 26 26 26 27 27
10 10 9 7 6 5 9 10 10 8 7 9 11 10 9 10 9 10 8 7 12 19 20 20 20 20 20 19 19 20 22 22 22 22 22 23 23 24 24 25 26 27 27
12 10 9 9 7 9 7 9 10 8 9 8 8 8 8 8 9 9 8 7 7 8 15 19 18 18 18 19 19 20 20 19 20 20 21 22 22 23 24 25 26 26 27
11 10 9 8 11 10 9 9 9 8 10 9 8 8 7 7 7 7 9 9 9 8 8 15 18 17 18 19 18 18 18 18 20 21 21 22 23 23 24 25 26 27 27
12 10 8 9 10 11 10 9 11 10 10 10 10 8 7 6 5 5 7 7 8 9 8 8 7 10 17 17 16 17 18 19 20 20 20 21 22 23 23 24 25 26 27
9 10 9 9 8 9 13 12 12 15 11 12 9 8 6 5 5 4 5 6 7 7 8 7 5 4 6 13 16 17 19 19 19 19 20 20 21 22 23 24 25 26 27
10 10 12 13 11 8 12 13 16 11 9 11 7 8 6 4 3 3 4 4 6 5 6 7 7 7 6 5 9 17 17 17 17 18 19 19 20 21 22 24 25 26 27
7 9 11 10 12 11 12 15 16 15 11 10 11 2 5 5 8 4 4 4 5 4 5 5 6 6 5 5 6 10 15 15 15 17 18 19 20 20 22 23 25 26 27
8 8 8 9 10 9 12 13 13 13 11 12 5 5 4 5 5 6 4 4 4 5 5 4 4 4 4 4 6 9 13 13 14 16 17 18 19 21 22 23 25 26 28
7 8 9 11 10 8 13 14 15 14 10 10 7 5 4 3 3 4 6 7 4 5 4 4 3 3 2 4 4 6 11 12 13 14 16 17 18 20 21 23 25 27 28
6 6 7 8 8 8 13 13 13 14 11 9 7 6 6 4 6 4 4 9 7 6 5 4 4 3 1 2 2 7 9 12 13 14 15 17 18 20 21 24 25 27 28
8 9 10 9 8 9 12 12 13 11 10 8 9 6 4 2 3 5 6 5 4 4 4 4 4 4 3 2 3 7 8 11 13 14 16 17 19 20 21 24 25 27 29
10 12 11 10 9 9 12 12 9 8 8 7 9 6 5 5 4 4 4 6 3 3 4 4 6 6 4 3 3 7 6 9 14 14 16 18 19 20 22 23 24 27 29
7 10 10 9 8 9 12 12 8 9 9 8 8 8 7 5 5 5 4 2 2 4 6 5 4 5 4 3 2 6 7 10 15 14 16 18 19 21 22 22 24 28 30
12 11 11 10 10 9 12 12 10 11 11 8 7 9 8 6 6 5 4 3 2 2 3 2 3 2 3 4 3 6 8 12 12 13 15 18 19 21 21 23 26 28 29
12 12 12 12 12 12 14 13 12 13 13 11 10 10 9 9 6 5 4 4 3 2 3 2 2 2 4 5 5 6 7 9 8 13 15 17 19 19 20 23 27 28 29
12 13 12 11 11 12 14 14 14 12 13 13 12 11 11 6 7 6 5 5 4 4 3 5 2 3 5 6 7 9 8 7 9 12 15 18 19 17 21 25 27 27 27
13 13 13 14 13 12 14 13 13 13 12 12 12 12 12 10 7 6 6 6 4 3 4 3 3 2 3 5 8 8 9 9 8 13 16 17 14 18 23 25 25 25 25
14 14 14 14 14 13 13 12 12 12 11 10 11 10 10 9 8 9 7 7 6 5 5 5 5 6 6 6 7 9 9 8 10 9 12 8 13 19 22 21 23 22 24
13 14 14 13 13 12 11 14 13 12 12 11 10 8 7 7 9 9 6 8 7 6 5 5 6 7 8 8 8 7 10 10 11 11 8 7 10 11 12 17 17 22 28
13 13 15 15 15 10 20 22 16 12 11 11 10 7 6 7 9 13 14 10 9 8 8 6 7 9 11 9 8 9 10 10 11 5 9 13 9 11 12 11 21 26 30
14 15 14 14 14 13 25 24 20 11 11 10 9 8 6 5 8 8 13 15 14 15 14 8 10 10 12 10 10 11 12 11 11 9 9 15 10 12 12 12 24 27 25
13 14 14 14 13 11 24 23 19 11 9 9 9 9 9 9 10 8 8 8 8 9 10 9 11 11 11 11 10 11 13 11 10 8 10 11 10 13 12 12 24 20 21
11 12 12 13 13 9 23 24 17 10 9 9 8 9 9 8 11 15 9 9 10 9 9 17 19 20 20 20 18 7 6 9 10 10 7 9 10 12 12 12 10 19 27
11 9 9 10 11 11 24 24 16 8 9 7 7 8 12 11 15 17 12 10 9 9 8 8 8 11 14 12 16 11 9 10 10 11 2 5 9 9 9 9 10 12 12
Wind_Direction
159 152 148 149 142 144 129 118 109 104 102 97 93 95 94 93 92 91 75 47 67 71 70 68 68 67 65 62 56 54 51 47 41 36 31 28 25 21 20 17 14 11 7
160 158 149 144 146 139 137 124 119 113 110 106 100 94 92 96 98 94 85 67 64 68 70 69 69 67 63 61 58 54 49 46 41 35 31 27 23 21 18 15 12 10 6
167 155 160 147 140 120 123 115 109 110 113 110 106 102 100 95 92 94 98 88 81 65 69 68 68 65 63 61 58 53 47 43 40 36 31 28 23 20 16 13 11 7 3
165 157 162 153 141 142 139 132 128 130 124 125 117 106 98 92 88 87 90 94 87 83 67 66 64 65 61 59 55 51 48 44 40 35 30 25 20 17 14 11 7 3 360
160 156 153 149 152 150 149 143 131 137 135 128 118 108 100 94 90 94 96 93 92 89 90 70 64 58 58 54 51 51 48 43 38 33 27 22 17 15 12 8 5 1 357
165 151 145 151 147 149 146 147 135 144 141 134 121 107 98 97 103 107 109 102 95 91 86 78 72 61 54 53 47 45 43 38 33 28 24 20 16 13 10 6 2 359 355
158 153 149 151 157 158 157 151 137 145 147 142 125 104 95 100 115 123 118 110 102 91 85 77 71 64 62 49 39 39 35 32 28 23 19 17 13 10 7 2 359 356 352
169 163 160 172 155 162 159 152 152 152 155 174 149 136 156 159 142 126 122 122 120 110 97 84 79 69 58 50 36 35 28 24 20 16 14 12 8 5 2 359 355 352 348
160 163 164 161 164 171 170 166 168 170 162 184 195 161 165 184 149 169 162 148 140 133 126 109 84 68 57 51 36 32 19 15 9 9 7 4 1 359 356 354 349 346 343
163 166 150 163 170 172 180 176 175 177 168 174 191 231 269 131 185 166 187 172 169 167 157 134 107 79 50 42 47 30 10 2 1 2 360 357 354 352 350 346 343 342 341
171 168 169 165 177 177 182 178 177 185 187 181 197 162 191 182 175 153 161 170 187 189 170 162 157 141 70 29 27 22 356 353 353 354 353 350 346 343 342 340 340 339 336
176 166 165 176 177 179 182 184 181 183 185 190 195 191 188 188 177 161 128 159 177 173 178 179 190 189 207 15 28 338 338 345 345 347 346 342 337 337 338 339 337 336 335
190 185 174 173 174 178 187 182 181 181 183 187 187 182 172 124 129 111 122 129 154 153 180 196 202 205 209 299 335 336 328 333 337 339 337 334 333 335 336 336 335 333 332
184 176 177 179 174 166 177 176 174 171 167 169 166 161 130 115 120 123 132 145 135 164 187 193 197 207 209 257 326 310 317 320 329 329 329 331 330 332 334 334 331 329 324
173 169 172 168 164 162 172 165 161 156 157 153 141 135 127 120 110 105 112 84 149 175 198 182 197 193 214 260 332 308 313 327 320 319 322 327 325 331 331 327 325 323 321
174 165 166 161 162 162 167 164 156 154 149 146 145 141 133 129 113 100 94 108 66 189 205 198 195 207 235 261 314 298 310 311 307 305 311 317 321 327 324 323 319 318 318
170 169 169 163 163 162 168 165 158 157 152 148 150 147 140 140 130 121 127 125 142 173 218 169 255 268 285 294 296 301 303 302 300 299 308 309 315 318 319 317 314 315 316
171 169 165 164 166 163 168 166 157 160 158 159 156 151 148 146 133 155 148 163 176 184 216 245 280 275 266 299 295 294 288 287 287 293 297 305 307 308 313 311 310 311 314
170 168 168 169 169 169 168 170 163 162 164 161 162 161 155 153 155 172 173 176 177 179 210 238 266 252 282 291 291 283 284 286 281 290 295 296 295 306 306 307 307 310 313
171 174 179 175 174 168 170 168 160 159 158 160 162 162 157 168 173 171 183 190 182 191 209 231 250 264 271 284 284 289 292 293 295 295 284 276 290 308 307 307 308 310 311
179 179 174 175 173 172 172 167 162 159 159 158 161 155 173 155 199 188 181 192 187 201 216 233 250 261 263 269 270 295 289 296 297 289 290 294 311 307 309 311 306 316 313
178 176 180 176 175 177 177 172 163 158 154 157 164 161 157 178 211 211 214 208 200 201 220 229 248 254 265 272 281 281 288 294 302 280 308 296 312 307 308 315 315 315 313
175 181 181 177 180 175 177 173 165 156 156 162 155 166 158 193 208 214 225 228 226 229 233 236 249 257 274 276 279 282 280 281 282 291 302 290 314 300 315 311 315 313 312
183 181 182 183 177 176 175 171 164 150 153 161 165 176 184 202 205 200 216 229 233 237 242 243 249 265 275 284 276 272 275 284 282 268 263 277 306 302 309 311 314 311 314
177 182 178 174 172 162 170 168 162 157 157 169 183 186 194 204 204 214 218 227 237 241 245 252 257 264 267 269 267 277 264 274 282 288 298 274 294 306 310 304 315 320 316
169 163 162 166 154 157 173 174 167 161 164 174 192 199 204 209 222 229 227 220 237 241 236 243 255 265 270 273 274 265 277 275 285 291 332 296 303 316 304 309 320 302 314